This demonstration page uses our WeatherBlox Daily Observations layout. Learn more.

Hourly Observations for October 9, 2020

Temp ( °F °C ) Dew Point ( °F °C ) Humidity (%) Winds ( mph kmh ) Pressure ( in mb ) Visibility ( mi km ) Precip ( " mm )
12:54 am 00:54 Clear 69 20.6 55 12.8 61 61 S 14 22 29.84 1010 10 16.0934 0 0
1:54 am 01:54 Clear 69 20.6 55 12.8 61 61 S 14 22 29.82 1010 10 16.0934 0 0
2:54 am 02:54 Clear 69 20.6 55 12.8 61 61 S 17 28 29.8 1009 10 16.0934 0 0
3:54 am 03:54 Clear 68 20 55 12.8 63 63 S 17 28 29.77 1008 10 16.0934 0 0
4:54 am 04:54 Clear 66 18.9 55 12.8 68 68 S 15 24 29.75 1008 10 16.0934 0 0
5:54 am 05:54 Clear 66 18.9 55 12.8 68 68 S 15 24 29.76 1008 10 16.0934 0 0
6:54 am 06:54 Clear 66 18.9 55 12.8 68 68 S 15 24 29.76 1008 10 16.0934 0 0
7:54 am 07:54 Sunny 65 18.3 55 12.8 70 70 S 13 20 29.77 1008 10 16.0934 0 0
8:54 am 08:54 Sunny 68 20 55 12.8 63 63 S 17 28 29.77 1008 10 16.0934 0 0
9:54 am 09:54 Sunny 70 21.1 55 12.8 59 59 SSW 16 26 29.77 1008 10 16.0934 0 0
10:54 am 10:54 Sunny 74 23.3 55 12.8 52 52 SSW 21 33 29.76 1008 10 16.0934 0 0
11:54 am 11:54 Sunny 79 26.1 54 12.2 42 42 SSW 18 30 29.75 1007 10 16.0934 0 0
12:54 pm 12:54 Sunny 82 27.8 53 11.7 37 37 SW 20 31 29.74 1007 10 16.0934 0 0
1:54 pm 13:54 Sunny 86 30 52 11.1 31 31 SSW 20 31 29.72 1007 10 16.0934 0 0
2:54 pm 14:54 Sunny 88 31.1 52 11.1 29 29 SSW 18 30 29.7 1006 10 16.0934 0 0
3:54 pm 15:54 Sunny 88 31.1 52 11.1 29 29 S 20 31 29.68 1005 10 16.0934 0 0
4:54 pm 16:54 Sunny 88 31.1 51 10.6 28 28 SSW 21 33 29.67 1005 10 16.0934 0 0
5:54 pm 17:54 Sunny 87 30.6 52 11.1 30 30 SSW 12 19 29.67 1005 10 16.0934 0 0
6:54 pm 18:54 Sunny 79 26.1 52 11.1 39 39 S 7 11 29.7 1006 10 16.0934 0 0
7:54 pm 19:54 Clear 73 22.8 53 11.7 50 50 S 7 11 29.72 1006 10 16.0934 0 0
8:54 pm 20:54 Clear 70 21.1 57 13.9 64 64 S 7 11 29.73 1007 10 16.0934 0 0
9:54 pm 21:54 Clear 67 19.4 57 13.9 71 71 S 6 9 29.75 1007 10 16.0934 0 0
10:54 pm 22:54 Clear 64 17.8 56 13.3 75 75 S 6 9 29.77 1008 10 16.0934 0 0
11:54 pm 23:54 Clear 63 17.2 56 13.3 78 78 Calm 29.78 1008 10 16.0934 0 0

Powered by AerisWeather